TimePDT,TemperatureF,Dew PointF,Humidity,Sea Level PressureIn,VisibilityMPH,Wind Direction,Wind SpeedMPH,Gust SpeedMPH,PrecipitationIn,Events,Conditions,WindDirDegrees,DateUTC
12:53 AM,55.9,52.0,87,29.87,10.0,Calm,Calm,-,N/A,,Clear,0,2013-08-27 07:53:00
1:53 AM,55.0,51.1,86,29.86,10.0,Calm,Calm,-,N/A,,Clear,0,2013-08-27 08:53:00
2:53 AM,54.0,50.0,86,29.85,10.0,Calm,Calm,-,N/A,,Clear,0,2013-08-27 09:53:00
3:53 AM,52.0,48.9,89,29.85,10.0,Calm,Calm,-,N/A,,Clear,0,2013-08-27 10:53:00
4:53 AM,51.1,48.9,92,29.85,10.0,Calm,Calm,-,N/A,,Clear,0,2013-08-27 11:53:00
5:53 AM,51.1,48.9,92,29.86,9.0,Calm,Calm,-,N/A,,Clear,0,2013-08-27 12:53:00
6:53 AM,48.9,46.9,93,29.87,8.0,Calm,Calm,-,N/A,,Clear,0,2013-08-27 13:53:00
7:53 AM,55.0,52.0,89,29.87,10.0,Calm,Calm,-,N/A,,Clear,0,2013-08-27 14:53:00
8:53 AM,62.1,52.0,70,29.87,10.0,Calm,Calm,-,N/A,,Clear,0,2013-08-27 15:53:00
9:53 AM,69.1,52.0,54,29.86,10.0,Calm,Calm,-,N/A,,Clear,0,2013-08-27 16:53:00
10:53 AM,73.9,52.0,46,29.85,10.0,Calm,Calm,-,N/A,,Clear,0,2013-08-27 17:53:00
11:53 AM,78.1,52.0,40,29.83,10.0,Variable,3.5,-,N/A,,Clear,0,2013-08-27 18:53:00
12:53 PM,84.0,53.1,34,29.82,10.0,South,5.8,-,N/A,,Clear,190,2013-08-27 19:53:00
1:53 PM,86.0,54.0,33,29.81,10.0,South,6.9,-,N/A,,Clear,170,2013-08-27 20:53:00
2:53 PM,87.1,52.0,30,29.78,10.0,SW,11.5,17.3,N/A,,Clear,230,2013-08-27 21:53:00
3:53 PM,86.0,50.0,29,29.77,10.0,SW,10.4,-,N/A,,Clear,230,2013-08-27 22:53:00
4:53 PM,84.9,52.0,32,29.77,10.0,SSW,8.1,-,N/A,,Clear,200,2013-08-27 23:53:00
5:53 PM,82.0,51.1,34,29.77,10.0,WSW,8.1,-,N/A,,Clear,240,2013-08-28 00:53:00
6:53 PM,77.0,53.1,43,29.78,10.0,South,8.1,-,N/A,,Clear,180,2013-08-28 01:53:00
7:53 PM,68.0,57.0,68,29.79,10.0,SE,9.2,-,N/A,,Clear,130,2013-08-28 02:53:00
8:53 PM,64.9,55.9,73,29.81,10.0,SE,6.9,-,N/A,,Clear,140,2013-08-28 03:53:00
9:53 PM,62.1,55.9,80,29.82,10.0,SSE,4.6,-,N/A,,Clear,160,2013-08-28 04:53:00
10:53 PM,60.1,55.9,86,29.82,10.0,South,4.6,-,N/A,,Clear,170,2013-08-28 05:53:00
11:53 PM,57.9,55.0,90,29.83,10.0,SE,4.6,-,N/A,,Clear,140,2013-08-28 06:53:00